Швенчёнис

Литва     55°07′53″N   26°09′46″E
темп.,
°C
ветер,
м/с
пор.,
м/с
влажн.,
%
обл.,
%
осадки,
мм/ч
давл.,
гПа
погр.,
м
17 октября, вс
вс1700:00+6зюз61385100 0.0 1014807
03:00+6зюз61384100 0.0 1014759
06:00+5зюз6148665 0.0 1014536
09:00+6зюз51385100 0.1 1013542
12:00+7зюз61283100 0.1 1014691
15:00+10зюз71173100 0.4 10131144
18:00+8зюз6118251 0.4 1013819
21:00+7зюз61287100 0.5 1013804
18 октября, пн
пн1800:00+7зюз61288100 0.0 1013594
03:00+6зюз5992100 0.3 1014940
06:00+6зсз48899 0.5 1014466
09:00+3зсз398697 0.5 1016277
12:00+7зсз59595 0.0 10171095
15:00+8зсз69495 0.0 10171446
18:00+6зсз49605 0.0 1018310
21:00+3зсз310754 0.0 1019279
19 октября, вт
вт1900:00+2зсз411815 0.0 1021314
03:00+1зсз411875 0.0 1022300
06:00+1зсз4109451 0.0 1024253
09:00+1зсз399384 0.0 1025254
12:00+6зсз476917 0.0 1025867
15:00+7зсз465599 0.1 10251465
18:00+5з2269100 0.0 102417
21:00+5юз2374100 0.0 102482
20 октября, ср
ср2000:00+4ююз2778100 0.0 1023191
03:00+4ююв41083100 0.2 1021608
06:00+4ю51385100 0.1 1018486
09:00+5ю61384100 0.7 1014405
12:00+6ю61591100 1.2 1012468
15:00+7ююз71593100 2.8 1008648
18:00+9юз61598100 1.3 1007622
21:00+10юз61695100 1.3 1005540
21 октября, чт
чт2100:00+11юз71793100 0.0 1004575
03:00+12юз71789100 0.1 1002718
06:00+11юз71689100 0.0 1001607
09:00+11юз71788100 0.0 1000614
12:00+12юз71780100 0.0 998746
15:00+15юз91873100 0.0 9961405
18:00+14зюз10216883 0.6 9961664
21:00+11зюз10176871 0.6 9981245